Vorticity
9 4 4 5 6 5 6 7 8 9 10 11 11 10 8 7 7 6 5 5 5 5
12 9 7 7 7 8 9 9 8 9 9 12 13 13 9 10 11 11 11 10 10 8
14 11 10 8 7 6 7 7 9 9 10 10 11 14 16 16 12 9 9 8 7 8
13 16 15 8 2 2 2 5 7 9 11 10 10 8 9 12 14 15 17 17 14 12
10 5 6 14 22 18 13 13 12 7 -0 3 4 6 8 8 8 9 11 11 10 12
7 7 5 -2 1 -4 1 4 5 6 2 8 11 19 5 5 6 10 8 8 12 12
16 4 1 1 1 -2 2 11 14 -0 13 15 15 12 8 6 3 6 7 5 6 6
22 19 20 12 0 3 2 2 4 19 6 19 16 16 18 19 15 14 17 14 9 9
15 16 10 14 7 8 17 25 -3 -6 -3 20 11 13 10 4 10 14 7 9 16 6
16 12 14 7 13 24 17 18 13 30 27 19 8 2 5 12 5 12 17 17 15 12
23 17 13 19 17 21 7 11 12 4 6 -9 15 0 7 8 11 4 2 10 4 5
16 15 8 14 16 8 9 8 12 -8 7 13 11 11 16 13 11 10 11 14 11 7
3 8 20 13 3 16 28 16 3 2 11 8 21 19 17 17 14 14 16 15 18 15
10 4 6 15 12 9 10 13 20 27 14 16 7 14 16 15 15 13 17 20 18 12
Height
5621 5621 5622 5622 5623 5623 5624 5626 5628 5630 5632 5633 5635 5636 5637 5639 5640 5641 5642 5643 5645 5646
5603 5604 5605 5606 5607 5607 5608 5609 5611 5612 5613 5615 5617 5619 5621 5622 5623 5625 5626 5627 5628 5629
5585 5586 5588 5589 5591 5592 5594 5595 5595 5596 5598 5599 5600 5601 5603 5605 5606 5607 5608 5609 5611 5612
5567 5569 5570 5572 5574 5576 5577 5578 5579 5581 5582 5583 5584 5585 5586 5587 5588 5589 5590 5591 5592 5592
5550 5552 5554 5554 5556 5558 5561 5562 5563 5565 5566 5567 5568 5568 5569 5571 5572 5572 5573 5573 5573 5574
5534 5535 5536 5538 5540 5541 5543 5545 5547 5548 5549 5551 5552 5553 5553 5554 5554 5554 5554 5556 5558 5559
5515 5517 5518 5520 5522 5524 5526 5528 5529 5532 5533 5533 5535 5535 5534 5534 5534 5538 5539 5540 5540 5542
5495 5496 5499 5501 5503 5505 5507 5511 5512 5514 5514 5516 5516 5518 5519 5520 5520 5521 5522 5523 5524 5525
5473 5476 5478 5480 5482 5484 5487 5490 5495 5498 5500 5501 5502 5503 5503 5505 5507 5507 5506 5507 5507 5507
5454 5456 5458 5460 5464 5467 5470 5474 5478 5481 5484 5486 5487 5489 5490 5490 5491 5492 5492 5492 5491 5491
5437 5440 5443 5446 5449 5453 5456 5459 5462 5465 5468 5470 5471 5472 5474 5476 5475 5477 5478 5477 5477 5475
5424 5427 5430 5434 5437 5439 5443 5445 5448 5450 5451 5453 5455 5456 5458 5459 5458 5458 5461 5461 5461 5460
5411 5414 5416 5420 5422 5425 5427 5430 5433 5435 5437 5439 5440 5441 5441 5441 5441 5444 5445 5445 5446 5445
5397 5399 5402 5405 5408 5411 5413 5416 5418 5421 5422 5424 5425 5426 5426 5426 5428 5430 5431 5431 5430 5431